Flag for U.S.A. Weather past 2 weeks in Hampton, Virginia, U.S.A.

Now
44 °F

Partly sunny.


Feels Like: 39 °F
Forecast: 31 / 47 °F
Wind: 9 mph from Southeast

Location: Langley Air Force Base

Current Time: Feb 1, 2015 at 2:51:23 PM

Latest Report: Feb 1, 2015 at 1:58 PM


Visibility: 10 mi

Pressure: 30.19 "Hg

Humidity: 50%

Dew point: 27 °F

Location of HamptonLocation

Historic Weather in Hampton — Graph

°F

Hampton temperature yesterday

Maximum temperature yesterday: 38 °F (at 3:58 PM)
Minimum temperature yesterday: 22 °F (at 6:58 AM)
Average temperature yesterday: 29 °F

Past Weeks' High & Low Weather Summary

 TemperatureHumidityPressure
High57 °F (Jan 20, 1:58 PM)100% (Jan 22, 1:03 AM)30.40 "Hg (Jan 22, 1:03 AM)
Low22 °F (Jan 31, 6:58 AM)26% (Jan 28, 3:58 PM)29.46 "Hg (Jan 24, 12:58 PM)
Average38 °F73%30.04 "Hg
* Reported Jan 17 12:58 PM — Feb 1 12:58 PM, Hampton, Weather by CustomWeather, © 2014

Note: Actual official high and low records may vary slightly from our data, if they occured in-between our weather recording intervals... More about our weather records

Advertising

Hampton weather history for previous 24 hours

 ConditionsComfort  
Time TempWeatherWind HumidityBarometerVisibility
12:58 PM
Feb 1
45 °FOvercast.9 mph48%30.24 "Hg10 mi
11:58 AM44 °FOvercast.9 mph49%30.29 "Hg10 mi
10:58 AM42 °FPartly sunny.13 mph50%30.31 "Hg10 mi
9:58 AM40 °FScattered clouds.9 mph53%30.32 "Hg10 mi
8:58 AM37 °FPartly sunny.9 mph66%30.31 "Hg10 mi
7:58 AM28 °FPartly sunny.5 mph89%30.33 "Hg10 mi
6:58 AM24 °FClear.8 mph81%30.31 "Hg10 mi
5:58 AM26 °FClear.2 mph76%30.32 "Hg10 mi
4:58 AM24 °FOvercast.6 mph83%30.30 "Hg10 mi
3:58 AM25 °FOvercast.No wind82%30.29 "Hg10 mi
2:58 AM23 °FPassing clouds.3 mph84%30.29 "Hg10 mi
1:58 AM24 °FClear.No wind84%30.29 "Hg10 mi
12:58 AM25 °FClear.No wind79%30.28 "Hg10 mi
11:58 PM
Jan 31
26 °FClear.1 mph77%30.29 "Hg10 mi
10:58 PM26 °FClear.No wind78%30.30 "Hg10 mi
9:58 PM28 °FClear.2 mph53%30.31 "Hg10 mi
8:58 PM27 °FClear.2 mph57%30.32 "Hg10 mi
7:58 PM28 °FClear.No wind51%30.32 "Hg10 mi
6:58 PM31 °FClear.2 mph54%30.32 "Hg10 mi
5:58 PM34 °FClear.5 mph33%30.31 "Hg10 mi
4:58 PM37 °FSunny.9 mph27%30.29 "Hg10 mi
3:58 PM38 °FSunny.12 mph28%30.29 "Hg10 mi
2:58 PM37 °FSunny.14 mph30%30.29 "Hg10 mi
Weather by CustomWeather, © 2014

See weather overviewHow to use our weather pages